リニア彗星

228P/LINEAR (2011)

English version
Home page
Updated on July 7, 2017

---------------------------------------------------------------------

・ プロフィール

符号 228P/2009 U2
検出日 2009年10月18日
検出光度 20.9等
検出者 J. V. Scotti (Kitt Peak)

・ 写真集

・ 軌道要素

The following orbital elements are taken from MPC 75728:

Epoch 2011 Aug. 27.0 TT = JDT 2455800.5
T 2011 Aug. 23.8328 TT                                  MPC
q   3.430470             (2000.0)            P               Q
n   0.1157766      Peri.  114.7925      -0.8231932      -0.5632966
a   4.169228       Node    31.0662      +0.4583961      -0.7332499
e   0.177193       Incl.    7.9154      +0.3350015      -0.3808432
P   8.51
From 176 observations 2001-2011, mean residual 0".7.

・ 光度変化

        m1 = 11.5 + 5 logΔ + 10.0 log r

---------------------------------------------------------------------

軌道要素はMPCのEphemerides and Orbital Elementsに掲載されたものです。
光度グラフはComet for Windowsで作成したものです。

---------------------------------------------------------------------

Copyright(C) Seiichi Yoshida (comet@aerith.net). All rights reserved.